Tracking 23611 objects as of 17-Sep-2021
HD Live streaming from Space Station
objects crossing your sky now
Track INSPIRATION-4

DMSP 5D-2 F13 DEB

Track DMSP 5D-2 F13 DEB now!
10-day predictions


NORAD ID: 42285
Int'l Code: 1995-015HB
Perigee: 837.0 km
Apogee: 891.7 km
Inclination: 98.9 °
Period: 102.1 minutes
Semi major axis: 7235 km
RCS: Unknown
Launch date: March 24, 1995
Source: United States (US)
Launch site: AIR FORCE WESTERN TEST RANGE (AFWTR)

Note: This is SATELLITE DEBRIS
aabbcc
Your satellite tracking list
Your tracking list is empty




NASA's NSSDC Master Catalog

Two Line Element Set (TLE):
1 42285U 95015HB  21259.24924713  .00000767  00000-0  45205-3 0  9991
2 42285  98.9285 255.7668 0037755 293.2445  66.4752 14.10629172322054
Source of the keplerian elements: AFSPC